Regional Weather Roundup
Issued by NWS Charleston, SC

Home | Current Version | Previous Version | Text Only | Print | Product List | Glossary On
Versions: 1 2 3 4 5 6 7 8 9 10 11 12 13 14 15 16 17 18 19 20 21 22 23 24 25 26 27 28 29 30 31 32 33 34 35 36 37 38 39 40 41 42 43 44 45 46 47 48 49 50
000
ASUS42 KCHS 200612
RWRCHS

Regional Weather Roundup
National Weather Service Charleston SC
100 AM EST SAT JAN 20 2018

NOTE: "fair" indicates few or no clouds below 12,000 feet with no
significant weather and/or obstructions to visibility.

Not all stations are quality controlled. Use data with caution,
especially dewpoint observations.

SCZ027-030-031-034>040-042>050-200700-
...Southeast South Carolina...

CITY           SKY/WX    TMP DP  RH WIND       PRES   REMARKS
N Charleston   FAIR      35  29  78 SW3       30.24F
6HR MIN TEMP:  35; 6HR MAX TEMP:  43;

Waterfront Prk NOT AVBL
Mount Pleasant FAIR      32  30  93 CALM      30.24F
Johns Island   FAIR      36  30  80 SW3       30.25S
Pinopolis        N/A     43  34  70 VRB3      30.16F
Moncks Corner  FAIR      32  23  69 CALM      30.23F
Summerville    FAIR      32  28  86 CALM      30.25S
Beaufort MCAS  FAIR      39  31  72 SW8       30.25F WCI  33
6HR MIN TEMP:  34; 6HR MAX TEMP:  44;

Beaufort Arpt  FAIR      39  34  81 SW3       30.25S HAZE
Hilton Head Is FAIR      39  28  65 SW5       30.26F WCI  36
Walterboro     FAIR      34  21  60 CALM      30.25S
Allendale      FAIR      32  21  64 CALM      30.24S

...Southern Midlands and Pee Dee...

CITY           SKY/WX    TMP DP  RH WIND       PRES   REMARKS
Georgetown     FAIR      36  30  80 W7        30.24S WCI  30
Kingstree      FAIR      30  23  74 CALM      30.22F
Orangeburg     FAIR      30  24  78 CALM      30.23F
6HR MIN TEMP:  29; 6HR MAX TEMP:  47;

Barnwell         N/A     30  21  69 CALM      30.24S
Aiken          FAIR      28  19  69 SW5       30.26S WCI  23
Manning        FAIR      32  25  74 MISG      30.23S
Columbia       FAIR      28  23  81 W5        30.22S WCI  23
6HR MIN TEMP:  27; 6HR MAX TEMP:  42;

Sumter         FAIR      40  17  39 CALM      30.19S
6HR MIN TEMP:  32; 6HR MAX TEMP:  43;

Florence       FAIR      34  22  61 VRB3      30.21R
6HR MIN TEMP:  30; 6HR MAX TEMP:  45;

Myrtle Beach   FAIR      41  26  55 W9        30.23F
N Myrtle Beach FAIR      43  26  51 W7        30.21S
6HR MIN TEMP:  35; 6HR MAX TEMP:  45;


$$

GAZ063-065-086>088-099>101-113>116-118-119-134>141-150-200700-
...Southeast Georgia...

CITY           SKY/WX    TMP DP  RH WIND       PRES   REMARKS
Savannah Arpt  FAIR      38  23  55 CALM      30.27S
6HR MIN TEMP:  35; 6HR MAX TEMP:  50;

Hunter AAF     FAIR      34  26  72 CALM      30.23F
6HR MIN TEMP:  34; 6HR MAX TEMP:  46;

Fort Stewart   FAIR      33  25  70 CALM      30.24F
6HR MIN TEMP:  32; 6HR MAX TEMP:  44;

Statesboro     FAIR      30  24  77 CALM      30.25F
Sylvania       FAIR      35  23  62 CALM      30.26S
Claxton        FAIR      30  27  87 CALM      30.26S

...CSRA, Central and far Southeast Georgia...

CITY           SKY/WX    TMP DP  RH WIND       PRES   REMARKS
Thomson        FAIR      27  19  72 CALM      30.29S
Augusta-Bush   FAIR      25  19  78 CALM      30.24S
6HR MIN TEMP:  25; 6HR MAX TEMP:  41;

Augusta-Daniel FAIR      45  11  25 W5        30.23F
Swainsboro     FAIR      32  25  74 CALM      30.26F
Vidalia        FAIR      34  27  75 SW3       30.26S
Eastman        FAIR      31  22  69 CALM      30.30R
Hazlehurst     FAIR      37  19  48 CALM      30.26R
Alma           FAIR      32  27  81 CALM      30.27S
6HR MIN TEMP:  31; 6HR MAX TEMP:  41;

Waycross       FAIR      32  28  83 CALM      30.27S
Jesup          FAIR      32  27  80 CALM      30.27S
Baxley         FAIR      32  27  80 CALM      30.26S
Brunswick      FAIR      34  32  93 S3        30.28S
Saint Simons   FAIR      37  35  92 CALM      30.27S
6HR MIN TEMP:  37; 6HR MAX TEMP:  48;


$$

SCZ027-028-034-036>038-045-046-048>050-GAZ119-141-200700-
...Lake and Supplemental Coastal Observations...

STATION/POSITION TIME  TEMP    WIND        PRES    WAVE   SWELL
                       AIR SEA DIR/SP/G            HT/PER HT/PER/DIR
                 (UTC) (F)     (DEG/KT/KT) (MB)    (FT/S) (FT/S/D)
Winyah Bay       0445   40     240/  3     1024.0
Lake Murray      0520   44     280/  5/  9 1022.4
ACE Basin NERRS  0445   37        CALM     1024.0
Fort Pulaski     0542          260/  3/  3   N/A
Sapelo Island    0500   40     190/  3     1025.0

$$

ANZ835-935-AMZ111-154-330-350-352-354-370-450-454-472-200700-
...C-MAN and Buoy Observations...

STATION/POSITION TIME  TEMP    WIND        PRES    WAVE   SWELL
                       AIR SEA DIR/SP/G            HT/PER HT/PER/DIR
                 (UTC) (F)     (DEG/KT/KT) (MB)    (FT/S) (FT/S/D)
Buoy 41004       0550   59     260/ 14/ 19 1023.7F   3/ 5   2/140/12
Buoy 41008       0550   50 51  210/ 10/ 12 1024.6F   2/11   2/ 80/11
Folly Beach CMAN 0500   45     240/  6/  8 1024.6F
Capers Nearshore 0508   44 48  250/ 14/ 19 1023.8F
Fripp Nearshore  NOT AVBL


STATION/POSITION TIME  TEMP    WIND        PRES    WAVE   SWELL
                       AIR SEA DIR/SP/G            HT/PER HT/PER/DIR
                 (UTC) (F)     (DEG/KT/KT) (MB)    (FT/S) (FT/S/D)
5E St. Marys GA  0530      47                N/A     2/10   2/ 90/11
Frying Pan Buoy  0550   56 60  270/ 16/ 17 1022.9F
Buoy 41025       0550          260/ 17/ 21 1021.8S   4/10   2/ 60/10
Cape Lookout NC  0500          260/  8/ 10 1022.5F
Buoy 41002       0550   63 70  230/ 12/ 16 1024.1F   5/11   5/ 20/11
Buoy 41010       NOT AVBL
St Augustine FL  0600   47 50  210/  3/  4 1025.3F


$$




USA.gov is the U.S. government's official web portal to all federal, state and local government web resources and services.